Tracking 25656 objects as of 21-May-2022
HD Live streaming from Space Station
objects crossing your sky now

COSMOS 2201

Track COSMOS 2201 now!
10-day predictions
COSMOS 2201 is classified as:


NORAD ID: 22038
Int'l Code: 1992-042E
Perigee: 1,415.2 km
Apogee: 1,430.8 km
Inclination: 82.6 °
Period: 114.1 minutes
Semi major axis: 7793 km
RCS: 1.1289 m2 (large)
Launch date: July 13, 1992
Source: Commonwealth of Independent States (former USSR) (CIS)
Launch site: PLESETSK MISSILE AND SPACE COMPLEX (PKMTR)
aabbcc
Your satellite tracking list
Your tracking list is empty




NASA's NSSDC Master Catalog

Two Line Element Set (TLE):
1 22038U 92042E   22141.51583108  .00000026  00000-0  84201-4 0  9990
2 22038  82.5869 127.2053 0010031  86.1859  36.7855 12.61724272374683
Source of the keplerian elements: AFSPC